TimePST,TemperatureF,Dew PointF,Humidity,Sea Level PressureIn,VisibilityMPH,Wind Direction,Wind SpeedMPH,Gust SpeedMPH,PrecipitationIn,Events,Conditions,WindDirDegrees,DateUTC
12:53 AM,41.0,28.9,62,30.03,10.0,WNW,11.5,-,N/A,,Clear,290,2014-01-03 08:53:00
1:53 AM,39.9,30.9,70,30.05,10.0,West,12.7,-,N/A,,Clear,270,2014-01-03 09:53:00
2:53 AM,41.0,30.9,67,30.09,10.0,West,9.2,-,N/A,,Clear,260,2014-01-03 10:53:00
3:53 AM,39.9,30.9,70,30.09,10.0,West,12.7,-,N/A,,Clear,270,2014-01-03 11:53:00
4:53 AM,39.9,30.0,68,30.10,10.0,West,12.7,21.9,N/A,,Clear,270,2014-01-03 12:53:00
5:53 AM,39.0,30.0,70,30.12,10.0,West,12.7,-,N/A,,Clear,260,2014-01-03 13:53:00
6:53 AM,39.0,30.0,70,30.12,10.0,WSW,12.7,-,N/A,,Clear,250,2014-01-03 14:53:00
7:53 AM,39.9,28.9,65,30.14,10.0,WSW,13.8,-,N/A,,Clear,250,2014-01-03 15:53:00
8:53 AM,39.9,28.0,63,30.15,10.0,West,10.4,-,N/A,,Clear,270,2014-01-03 16:53:00
9:53 AM,44.1,30.9,60,30.18,10.0,WNW,11.5,-,N/A,,Clear,290,2014-01-03 17:53:00
10:53 AM,45.0,30.9,58,30.18,10.0,West,10.4,-,N/A,,Clear,260,2014-01-03 18:53:00
11:53 AM,48.0,30.9,52,30.19,10.0,NW,11.5,-,N/A,,Clear,310,2014-01-03 19:53:00
12:53 PM,48.0,34.0,58,30.19,10.0,NW,9.2,-,N/A,,Clear,310,2014-01-03 20:53:00
1:53 PM,46.9,33.1,59,30.20,10.0,NW,10.4,-,N/A,,Clear,310,2014-01-03 21:53:00
2:53 PM,45.0,36.0,71,30.23,10.0,NNW,8.1,-,N/A,,Clear,340,2014-01-03 22:53:00
3:53 PM,43.0,36.0,76,30.26,10.0,Calm,Calm,-,N/A,,Clear,0,2014-01-03 23:53:00
4:53 PM,36.0,34.0,93,30.28,10.0,Calm,Calm,-,N/A,,Clear,0,2014-01-04 00:53:00
5:53 PM,34.0,30.9,89,30.30,10.0,SW,5.8,-,N/A,,Clear,230,2014-01-04 01:53:00
6:53 PM,33.1,30.9,92,30.30,10.0,SW,8.1,-,N/A,,Clear,230,2014-01-04 02:53:00
7:53 PM,32.0,28.9,88,30.33,10.0,SW,6.9,-,N/A,,Clear,230,2014-01-04 03:53:00
8:53 PM,33.1,28.9,85,30.34,10.0,SW,5.8,-,N/A,,Clear,230,2014-01-04 04:53:00
9:53 PM,33.1,28.0,82,30.35,10.0,North,-9999.0,-,N/A,,Clear,0,2014-01-04 05:53:00
10:53 PM,33.1,28.0,82,30.37,10.0,North,-9999.0,-,N/A,,Clear,0,2014-01-04 06:53:00
11:53 PM,32.0,27.0,82,30.39,10.0,North,-9999.0,-,N/A,,Clear,0,2014-01-04 07:53:00